| time (UTC) | temp C | wind direction | speed KPH | gust KPH | rain 1hr cm | rain 24hr cm | rain mn cm | humidity % | barometer mb |
| 20260505200058 | 16 | 175 | 0.0 | 0.0 | 0.00 | 0.00 | 0.00 | 83 | 1010.6 |
| 20260505194555 | 15 | 205 | 0.0 | 0.0 | 0.00 | 0.03 | 0.00 | 83 | 1010.6 |
| 20260505193053 | 15 | 187 | 0.0 | 0.0 | 0.00 | 0.03 | 0.00 | 84 | 1010.7 |
| 20260505191602 | 15 | 200 | 0.0 | 4.8 | 0.00 | 0.03 | 0.00 | 85 | 1010.7 |
| 20260505190049 | 15 | 222 | 0.0 | 0.0 | 0.00 | 0.03 | 0.00 | 84 | 1010.6 |
| 20260505184546 | 15 | 154 | 0.0 | 0.0 | 0.00 | 0.05 | 0.00 | 84 | 1010.6 |
| 20260505183044 | 14 | 5 | 0.0 | 0.0 | 0.00 | 0.05 | 0.00 | 84 | 1010.6 |
| 20260505181545 | 14 | 26 | 0.0 | 4.8 | 0.00 | 0.05 | 0.00 | 87 | 1010.5 |
| 20260505180039 | 13 | 230 | 0.0 | 0.0 | 0.00 | 0.05 | 0.00 | 87 | 1010.4 |
| 20260505174541 | 13 | 344 | 0.0 | 0.0 | 0.00 | 0.05 | 0.00 | 87 | 1010.4 |
| 20260505173034 | 13 | 11 | 0.0 | 0.0 | 0.00 | 0.05 | 0.00 | 90 | 1010.3 |
| 20260505171533 | 13 | 347 | 0.0 | 0.0 | 0.00 | 0.05 | 0.00 | 90 | 1010.3 |
| 20260505170030 | 13 | 281 | 0.0 | 0.0 | 0.00 | 0.05 | 0.00 | 91 | 1010.3 |
| 20260505164529 | 12 | 205 | 0.0 | 0.0 | 0.00 | 0.08 | 0.00 | 92 | 1010.3 |
| 20260505163033 | 12 | 19 | 0.0 | 0.0 | 0.00 | 0.08 | 0.00 | 93 | 1010.1 |
| 20260505161526 | 12 | 355 | 0.0 | 1.6 | 0.00 | 0.08 | 0.00 | 94 | 1010.1 |
| 20260505153022 | 11 | 321 | 0.0 | 3.2 | 0.00 | 0.08 | 0.00 | 96 | 1010.0 |
| 20260505151521 | 11 | 281 | 0.0 | 0.0 | 0.00 | 0.08 | 0.00 | 96 | 1010.0 |
| 20260505124514 | 10 | 25 | 0.0 | 0.0 | 0.00 | 0.08 | 0.00 | 96 | 1009.2 |
| 20260505123013 | 10 | 25 | 0.0 | 0.0 | 0.00 | 0.08 | 0.00 | 96 | 1009.3 |
| 20260505121514 | 10 | 25 | 0.0 | 0.0 | 0.00 | 0.08 | 0.00 | 96 | 1009.1 |
| 20260505120011 | 11 | 25 | 0.0 | 0.0 | 0.00 | 0.08 | 0.00 | 96 | 1009.2 |
| 20260505114514 | 11 | 25 | 0.0 | 0.0 | 0.00 | 0.08 | 0.00 | 96 | 1009.2 |
| 20260505113016 | 11 | 25 | 0.0 | 0.0 | 0.00 | 0.08 | 0.00 | 96 | 1009.2 |
| 20260505111510 | 11 | 25 | 0.0 | 0.0 | 0.00 | 0.08 | 0.00 | 96 | 1009.2 |
| 20260505101508 | 11 | 25 | 0.0 | 0.0 | 0.00 | 0.08 | 0.00 | 96 | 1009.2 |
| 20260505100007 | 11 | 345 | 0.0 | 0.0 | 0.00 | 0.08 | 0.00 | 95 | 1009.2 |
| 20260505094505 | 11 | 345 | 0.0 | 0.0 | 0.00 | 0.08 | 0.00 | 95 | 1009.1 |
| 20260505093004 | 11 | 345 | 0.0 | 0.0 | 0.00 | 0.08 | 0.00 | 95 | 1009.3 |
| 20260505091500 | 11 | 345 | 0.0 | 0.0 | 0.00 | 0.08 | 0.00 | 95 | 1009.8 |
| 20260505090107 | 11 | 9 | 0.0 | 0.0 | 0.00 | 0.08 | 0.00 | 95 | 1010.0 |
| 20260505084600 | 11 | 340 | 0.0 | 0.0 | 0.00 | 0.08 | 0.00 | 95 | 1010.0 |
| 20260505083103 | 11 | 339 | 0.0 | 0.0 | 0.00 | 0.08 | 0.00 | 95 | 1009.8 |
| 20260505081602 | 11 | 339 | 0.0 | 0.0 | 0.00 | 0.08 | 0.00 | 95 | 1010.0 |
| 20260505080057 | 11 | 339 | 0.0 | 0.0 | 0.00 | 0.08 | 0.00 | 95 | 1010.3 |
| 20260505074555 | 11 | 339 | 0.0 | 0.0 | 0.00 | 0.08 | 0.00 | 95 | 1010.0 |
| 20260505073058 | 11 | 251 | 0.0 | 0.0 | 0.00 | 0.08 | 0.00 | 95 | 1010.2 |
| 20260505071555 | 11 | 251 | 0.0 | 0.0 | 0.00 | 0.08 | 0.00 | 95 | 1010.2 |
| 20260505070052 | 11 | 251 | 0.0 | 0.0 | 0.00 | 0.08 | 0.00 | 95 | 1010.4 |
| 20260505064550 | 11 | 251 | 0.0 | 0.0 | 0.00 | 0.08 | 0.08 | 95 | 1010.3 |
| 20260505063050 | 11 | 251 | 0.0 | 0.0 | 0.00 | 0.08 | 0.08 | 95 | 1010.3 |
| 20260505061550 | 11 | 251 | 0.0 | 0.0 | 0.00 | 0.08 | 0.08 | 95 | 1010.5 |
| 20260505060049 | 11 | 251 | 0.0 | 0.0 | 0.00 | 0.08 | 0.08 | 94 | 1010.7 |
| 20260505054549 | 11 | 251 | 0.0 | 0.0 | 0.00 | 0.08 | 0.08 | 94 | 1010.7 |
| 20260505053050 | 11 | 251 | 0.0 | 0.0 | 0.00 | 0.08 | 0.08 | 94 | 1010.7 |
| 20260505051548 | 11 | 251 | 0.0 | 0.0 | 0.00 | 0.08 | 0.08 | 94 | 1010.5 |
| 20260505041545 | 11 | 257 | 0.0 | 0.0 | 0.00 | 0.08 | 0.08 | 93 | 1010.4 |
| 20260505040045 | 11 | 283 | 0.0 | 0.0 | 0.00 | 0.08 | 0.08 | 93 | 1010.3 |
| 20260505034544 | 11 | 239 | 0.0 | 0.0 | 0.00 | 0.08 | 0.08 | 92 | 1010.1 |
| 20260505033105 | 11 | 260 | 0.0 | 0.0 | 0.00 | 0.08 | 0.08 | 92 | 1010.0 |
| 20260505031542 | 11 | 252 | 0.0 | 0.0 | 0.00 | 0.08 | 0.08 | 91 | 1009.9 |
| 20260505030043 | 11 | 204 | 0.0 | 0.0 | 0.00 | 0.08 | 0.08 | 91 | 1009.9 |
| 20260505024542 | 12 | 222 | 0.0 | 0.0 | 0.00 | 0.08 | 0.08 | 91 | 1010.0 |
| 20260505023049 | 12 | 239 | 0.0 | 0.0 | 0.00 | 0.08 | 0.08 | 90 | 1009.9 |
| 20260505021540 | 12 | 270 | 0.0 | 0.0 | 0.00 | 0.08 | 0.08 | 90 | 1010.0 |
| 20260505020046 | 12 | 306 | 0.0 | 0.0 | 0.00 | 0.08 | 0.08 | 89 | 1010.0 |
| 20260505014540 | 12 | 27 | 0.0 | 0.0 | 0.00 | 0.00 | 0.08 | 90 | 1010.0 |
| 20260505013039 | 12 | 276 | 0.0 | 0.0 | 0.00 | 0.08 | 0.08 | 89 | 1010.0 |
| 20260505011539 | 12 | 257 | 0.0 | 8.0 | 0.00 | 0.08 | 0.08 | 90 | 1010.0 |
| 20260505010042 | 12 | 298 | 0.0 | 0.0 | 0.00 | 0.08 | 0.08 | 90 | 1010.0 |
| 20260505004545 | 13 | 186 | 0.0 | 0.0 | 0.00 | 0.08 | 0.08 | 90 | 1009.8 |
| 20260505003039 | 13 | 219 | 0.0 | 0.0 | 0.00 | 0.08 | 0.08 | 90 | 1009.8 |
| 20260505001537 | 13 | 252 | 0.0 | 1.6 | 0.00 | 0.08 | 0.08 | 91 | 1009.7 |
| 20260505000037 | 13 | 226 | 0.0 | 0.0 | 0.00 | 0.08 | 0.08 | 91 | 1009.8 |
| 20260504234553 | 13 | 269 | 0.0 | 0.0 | 0.00 | 0.08 | 0.08 | 92 | 1009.8 |
| 20260504233036 | 13 | 228 | 0.0 | 0.0 | 0.00 | 0.08 | 0.08 | 92 | 1009.8 |
| 20260504231545 | 13 | 179 | 0.0 | 0.0 | 0.00 | 0.08 | 0.08 | 93 | 1009.8 |
| 20260504230034 | 13 | 284 | 0.0 | 0.0 | 0.00 | 0.08 | 0.08 | 94 | 1010.0 |
| 20260504224532 | 12 | 269 | 0.0 | 3.2 | 0.00 | 0.08 | 0.08 | 94 | 1010.2 |
| 20260504223032 | 12 | 49 | 0.0 | 0.0 | 0.00 | 0.08 | 0.08 | 93 | 1010.3 |
| 20260504221532 | 12 | 265 | 0.0 | 8.0 | 0.00 | 0.08 | 0.08 | 93 | 1010.4 |
| 20260504220031 | 12 | 197 | 1.6 | 8.0 | 0.00 | 0.08 | 0.08 | 94 | 1010.5 |
| 20260504214537 | 12 | 309 | 0.0 | 0.0 | 0.00 | 0.08 | 0.08 | 93 | 1010.7 |
| 20260504213031 | 13 | 326 | 0.0 | 0.0 | 0.00 | 0.08 | 0.08 | 94 | 1010.5 |
| 20260504211529 | 13 | 240 | 0.0 | 0.0 | 0.00 | 0.08 | 0.08 | 93 | 1010.5 |
| 20260504210028 | 13 | 207 | 0.0 | 3.2 | 0.00 | 0.08 | 0.08 | 95 | 1010.4 |
| 20260504204551 | 13 | 263 | 0.0 | 4.8 | 0.00 | 0.08 | 0.08 | 95 | 1010.4 |
| 20260504203028 | 13 | 63 | 0.0 | 0.0 | 0.03 | 0.08 | 0.08 | 96 | 1010.4 |
| 20260504201524 | 13 | 194 | 0.0 | 0.0 | 0.03 | 0.08 | 0.08 | 96 | 1010.3 |